CST,Max TemperatureF,Mean TemperatureF,Min TemperatureF,Max Dew PointF,MeanDew PointF,Min DewpointF,Max Humidity, Mean Humidity, Min Humidity, Max Sea Level PressureIn, Mean Sea Level PressureIn, Min Sea Level PressureIn, Max VisibilityMiles, Mean VisibilityMiles, Min VisibilityMiles, Max Wind SpeedMPH, Mean Wind SpeedMPH, Max Gust SpeedMPH,PrecipitationIn, CloudCover, Events, WindDirDegrees
2013-11-1,55,47,39,38,37,35,92,71,50,29.87,29.63,29.47,10,10,8,22,13,26,T,5,Rain,293
2013-11-2,51,40,29,38,34,27,100,75,50,30.14,30.03,29.86,10,10,7,21,10,24,0.00,3,,307
2013-11-3,54,41,28,34,31,26,92,67,41,30.15,30.04,29.91,10,10,10,35,21,46,0.00,0,,155
2013-11-4,50,39,28,45,38,29,100,80,60,30.19,29.99,29.89,10,9,2,26,13,35,T,5,,195
2013-11-5,43,33,22,43,35,22,100,90,79,30.24,30.06,29.87,10,5,0,28,11,33,1.10,6,Fog-Rain,34
2013-11-6,42,35,27,34,28,21,96,71,45,30.25,30.10,29.93,10,10,4,28,14,35,T,4,Rain,316
2013-11-7,42,36,30,32,28,24,92,74,55,30.31,30.27,30.21,10,10,8,21,12,24,0.00,4,,279
2013-11-8,49,34,19,40,28,19,92,67,42,30.27,29.99,29.75,10,10,10,35,14,46,0.01,2,Rain,163
2013-11-9,51,41,31,39,34,26,85,71,56,30.30,30.01,29.76,10,10,10,30,16,36,0.00,3,,285
2013-11-10,42,35,28,31,28,26,89,75,60,30.40,30.30,30.14,10,10,10,18,9,23,0.00,5,,252
2013-11-11,43,28,12,31,21,8,92,77,62,30.75,30.38,30.12,10,7,0,26,16,33,0.03,5,Fog-Snow,342
2013-11-12,24,15,6,13,9,4,91,77,62,30.87,30.76,30.57,10,10,10,14,8,18,0.00,0,,268
2013-11-13,50,35,19,30,22,11,70,58,46,30.54,30.21,29.99,10,10,10,28,15,35,0.00,0,,205
2013-11-14,48,39,30,36,29,23,92,76,60,29.96,29.90,29.86,10,10,9,20,11,23,0.00,2,,226
2013-11-15,55,39,23,41,32,25,100,80,59,29.90,29.84,29.72,10,7,2,15,7,19,0.00,0,,180
2013-11-16,60,49,37,56,45,34,100,83,66,29.68,29.44,29.26,10,6,1,24,15,34,T,5,Rain,167
2013-11-17,45,40,35,41,36,31,100,85,70,29.92,29.53,29.35,10,9,2,35,14,43,0.19,5,Rain,286
2013-11-18,39,30,20,31,25,18,100,77,54,30.30,30.12,29.91,10,10,8,30,15,37,0.00,3,,304
2013-11-19,46,33,20,32,27,18,91,75,58,30.30,30.15,29.99,10,10,8,28,17,35,0.00,3,,150
2013-11-20,41,39,36,37,33,26,100,80,59,30.05,29.97,29.91,10,6,2,26,16,32,T,8,,150
2013-11-21,37,31,24,37,28,21,100,92,84,30.50,30.25,30.06,10,5,0,26,15,33,T,8,Fog-Snow,333
2013-11-22,29,20,10,22,15,8,96,71,46,30.65,30.56,30.46,10,8,2,24,14,32,0.02,3,Snow,313
2013-11-23,18,10,2,8,3,-2,88,71,54,30.86,30.80,30.64,10,10,10,25,14,32,0.00,0,,319
2013-11-24,25,13,0,11,6,-1,95,73,50,30.77,30.50,30.20,10,10,10,25,14,35,0.00,1,,193
2013-11-25,42,33,23,27,22,12,81,68,54,30.14,30.09,30.03,10,10,10,26,16,34,T,5,,264
2013-11-26,33,21,9,22,11,2,76,58,40,30.39,30.25,30.10,10,10,10,35,20,41,0.00,6,,329
2013-11-27,24,14,4,11,7,3,88,67,46,30.42,30.29,30.10,10,10,10,18,9,23,0.00,0,,204
2013-11-28,31,20,8,16,10,5,92,73,53,30.55,30.33,30.08,10,10,10,22,9,26,0.00,1,,326
2013-11-29,32,19,5,22,14,3,91,73,54,30.56,30.43,30.20,10,10,7,21,10,26,0.00,0,,160
2013-11-30,46,35,23,29,25,22,88,69,49,30.18,30.11,30.05,10,10,8,14,9,20,0.00,0,,266